Sigil TimeFrame

Sigil TimeFrame ⇒ XML

NameTime LeftWindow Opens
Lacuste of the Swarm1d 12:232019-01-20 22:52:00
Noxious Slug0d 20:572019-01-21 14:18:00
Bolkor, the Holy Master0d 18:332019-01-21 16:42:00
Ganja the Stone Golem0d 17:472019-01-21 17:28:00
Rancid, Lord of Thugs0d 15:452019-01-21 19:30:00
Anguish0d 10:592019-01-22 00:16:00
Volgan the Living Ironbark0d 07:302019-01-22 03:45:00
Jorun the Blazing Swordsman0d 05:542019-01-22 05:21:00
Ag Nabak the Abomination0d 03:522019-01-22 07:23:00
Beast of Cards0d 03:182019-01-22 07:57:00
Murderface0d 03:172019-01-22 07:58:00
Tylos, The Lord Master0d 01:552019-01-22 09:20:00
Synge, The Red Dragon0d 01:202019-01-22 09:55:00
Grivvek, Protector of the Brood0d 00:542019-01-22 10:21:00
Terrance, Rebel of Rallis0d 00:302019-01-22 10:45:00
Freezebreed, The Frozen Manipulator0d 00:442019-01-22 12:00:00
Keeper of Nature0d 01:402019-01-22 12:56:00
Lady Ariella0d 01:452019-01-22 13:01:00
Nayark the Mummified Sorcerer0d 02:052019-01-22 13:21:00
Ancient Magus Tarkin0d 02:462019-01-22 14:02:00
Anvilfist0d 03:082019-01-22 14:24:00
Amalgamated Apparition0d 03:192019-01-22 14:35:00
Sylvanna TorLai0d 04:082019-01-22 15:24:00
Great Lord Ganeshan0d 04:212019-01-22 15:37:00
Rotborn, Eater of the Dead0d 05:412019-01-22 16:57:00
Lord Varan0d 07:282019-01-22 18:44:00
Baron Mu, Dark Rider of the Undead0d 08:092019-01-22 19:25:00
Samatha Dark-Soul0d 09:112019-01-22 20:27:00
Zikkir the Dark Archer0d 11:392019-01-22 22:55:00
Ebliss, Fallen Angel of Despair0d 11:432019-01-22 22:59:00
Brutalitar, Lord of the Underworld0d 12:012019-01-22 23:17:00
Numerocure, The Black Messenger of Evil0d 12:182019-01-22 23:34:00
Nessam0d 12:512019-01-23 00:07:00
Wanhiroeaz the Devourer0d 12:512019-01-23 00:07:00
Crantos, Defender of Ultimation0d 13:012019-01-23 00:17:00
King Ashnar, Lord of the Unliving0d 13:132019-01-23 00:29:00
Vitkros, Hydra of the Deep0d 13:392019-01-23 00:55:00
Gnorb0d 14:102019-01-23 01:26:00
Shadow0d 14:222019-01-23 01:38:00
Garland, The Lord Keeper0d 15:012019-01-23 02:17:00
Old World Drake0d 16:432019-01-23 03:59:00
Howldroid, Tormentor of the Pit0d 17:102019-01-23 04:26:00
Windstrike The Vile0d 17:212019-01-23 04:37:00
Lord Sibannac0d 17:462019-01-23 05:02:00
Crane0d 21:352019-01-23 08:51:00
Detox0d 22:322019-01-23 09:48:00
Sarcrina the Astral Priestess0d 22:492019-01-23 10:05:00
Zertan, The Collector0d 23:062019-01-23 10:22:00
Threk, King of Lords0d 23:262019-01-23 10:42:00
Traxodon the Plaguebringer1d 01:442019-01-23 13:00:00
Tsort1d 03:362019-01-23 14:52:00
Nafir, God of Desolation1d 04:332019-01-23 15:49:00
Animated Captain1d 07:272019-01-23 18:43:00
Pinosis1d 08:322019-01-23 19:48:00
Mistress of the Sword1d 08:362019-01-23 19:52:00
Melt Bane, The Forbidden Demon Dragon1d 08:522019-01-23 20:08:00
The Emerald Assassin1d 09:392019-01-23 20:55:00
Lord Narada1d 10:362019-01-23 21:52:00
Hyrak, Bringer of Nightmares1d 10:382019-01-23 21:54:00
Sigil, Lich of Woe1d 14:022019-01-24 01:18:00
Bloodchill the Grizzly1d 14:592019-01-24 02:15:00
Smoot the Yeti1d 16:322019-01-24 03:48:00
Skybrine The Inescapable1d 17:462019-01-24 05:02:00
Hackerphage, Protector of the Gateway1d 18:232019-01-24 05:39:00
Dreg nor, Keeper of the Infernal Essence1d 20:152019-01-24 07:31:00
Akkel the Enflamed Warrior1d 21:392019-01-24 08:55:00
Lady Chaos, Queen of the Abyss2d 03:312019-01-24 14:47:00
Kro Shuk, Doomslayer2d 07:452019-01-24 19:01:00
Nar Zhul, Slayer of All2d 09:122019-01-24 20:28:00
Slashbrood, Devourer of the Blackness2d 10:252019-01-24 21:41:00
Kretok, Descendant of Nature2d 11:002019-01-24 22:16:00
Gorganus of the Wood2d 14:142019-01-25 01:30:00
Dlanod, the Crazed Chancellor2d 14:282019-01-25 01:44:00
Lord Suka2d 15:312019-01-25 02:47:00
Balerion, Dragon of Dread2d 17:362019-01-25 04:52:00
Archdevil Yirkon2d 19:162019-01-25 06:32:00
Quiver, The Renegade2d 19:192019-01-25 06:35:00
Jazzmin, Maiden of Vitality2d 23:092019-01-25 10:25:00
Lord Xordam2d 23:302019-01-25 10:46:00
Jade Dragonite3d 01:102019-01-25 12:26:00
Skarthul the Avenged3d 03:442019-01-25 15:00:00
Xynak, the Arcane Master3d 10:472019-01-25 22:03:00
Emperor Neudeus, Controller of the Universe3d 12:062019-01-25 23:22:00
Ormsul the Putrid3d 13:062019-01-26 00:22:00
Raiyar, the Shadow Master3d 15:532019-01-26 03:09:00
Straya, the Underworld Ruler3d 19:542019-01-26 07:10:00
Karvaz, Lord of Alsayic3d 22:522019-01-26 10:08:00
Esquin, the Kinetic Master3d 23:482019-01-26 11:04:00
Crolvak, the Fire Master3d 23:512019-01-26 11:07:00
Viserion, the Necrodragon4d 04:052019-01-26 15:21:00
Felroc, Overseer of Hellfire4d 06:022019-01-26 17:18:00
Varsanor, Master of Darkness4d 10:082019-01-26 21:24:00
Q-SEC Commander4d 21:272019-01-27 08:43:00
Shaik, Servant of Arkron199d 06:502018-07-07 04:25:00
Rook, Hand of Arkron197d 08:402018-07-09 02:35:00
95 Gods, Last update: 2019-01-22 15:50:03